Date,TemperatureHighF,TemperatureAvgF,TemperatureLowF,DewpointHighF,DewpointAvgF,DewpointLowF,HumidityHigh,HumidityAvg,HumidityLow,PressureMaxIn,PressureMinIn,WindSpeedMaxMPH,WindSpeedAvgMPH,GustSpeedMaxMPH,PrecipitationSumIn
2013-6-1,87.3,77.7,72.8,78.4,73.3,70.3,95,87,68,30.02,29.93,13,2,15,0.32
2013-6-2,90.5,80.0,72.3,77.9,74.5,70.8,96,84,65,29.98,29.89,13,1,13,0.01
2013-6-3,85.5,78.6,75.3,78.1,74.9,73.0,94,88,77,29.98,29.89,12,1,12,0.18
2013-6-4,85.5,79.4,75.2,76.3,73.8,72.1,93,83,72,30.00,29.92,14,2,15,0.00
2013-6-5,85.2,77.7,73.4,74.9,73.1,71.2,94,86,66,29.99,29.86,16,3,16,0.22
2013-6-6,78.7,75.8,73.7,75.6,73.5,71.9,95,93,88,29.86,29.67,28,5,29,1.37
2013-6-7,85.4,79.2,73.3,77.0,74.3,71.5,95,85,69,29.95,29.77,11,2,12,0.00
2013-6-8,88.4,78.8,71.3,81.7,74.7,69.5,95,88,73,30.08,29.95,21,2,21,1.12
2013-6-9,91.7,80.0,71.1,78.7,74.2,69.3,96,84,62,30.07,29.98,14,1,15,0.13
2013-6-10,90.5,81.9,75.1,78.3,74.9,71.9,94,81,61,30.07,29.99,11,1,12,0.00
2013-6-11,93.0,81.4,74.2,79.4,75.1,71.1,94,82,56,30.08,29.99,11,1,11,0.45
2013-6-12,95.8,83.4,72.1,79.5,74.2,69.9,94,75,54,30.07,29.98,13,0,15,0.00
2013-6-13,91.4,83.3,78.2,77.7,76.0,73.9,92,80,61,30.04,29.90,11,2,12,0.00
2013-6-14,88.0,82.5,78.8,76.8,74.9,73.6,87,78,65,29.95,29.87,16,2,16,0.00
2013-6-15,90.7,83.2,78.2,78.8,75.9,72.2,89,79,64,30.03,29.91,10,2,11,0.00
2013-6-16,91.8,83.2,76.2,80.4,77.1,74.0,94,83,61,30.06,30.00,12,1,12,0.02
2013-6-17,92.5,84.9,77.1,78.6,76.3,73.7,94,77,58,30.05,29.97,10,1,11,0.00
2013-6-18,92.2,84.6,77.4,79.2,76.7,74.8,92,78,61,30.04,29.95,11,1,11,0.00
2013-6-19,93.8,84.5,74.2,80.1,76.9,71.5,95,79,62,30.02,29.96,10,1,10,0.61
2013-6-20,92.2,83.5,76.6,78.9,74.6,71.3,88,76,53,30.08,29.99,11,1,12,0.02
2013-6-21,93.5,81.4,73.6,77.0,73.1,70.7,92,78,52,30.09,30.01,12,1,12,0.21
2013-6-22,92.3,81.7,72.8,76.0,72.7,70.4,94,76,55,30.10,30.02,10,1,10,0.00
2013-6-23,91.7,78.8,71.8,77.2,73.5,68.1,95,85,59,30.12,30.03,24,1,24,1.32
2013-6-24,93.0,82.1,74.0,77.9,74.7,72.2,95,80,54,30.16,30.03,10,1,13,0.05
2013-6-25,93.7,83.1,74.7,77.8,74.8,71.8,94,78,56,30.12,29.99,14,1,14,0.07
2013-6-26,92.2,80.9,74.2,79.5,74.4,70.0,95,82,62,30.05,29.99,16,1,18,0.00
2013-6-27,92.2,82.2,72.6,78.0,74.4,70.0,94,78,62,30.04,29.93,11,1,11,0.00
2013-6-28,89.6,81.8,74.1,79.2,76.1,72.3,95,84,62,29.96,29.84,16,2,19,0.98
2013-6-29,90.0,82.2,76.1,79.5,76.1,73.6,94,82,65,29.87,29.79,16,2,16,0.28
2013-6-30,89.4,82.7,74.3,79.7,76.7,72.4,94,82,69,29.87,29.79,15,2,15,0.28